Theta_e
322 322 322 321 321 320 320 320 319 319 320 320 320 320 320 319 319 318 318 316 317 318
320 321 321 321 320 321 320 320 318 318 318 319 319 320 320 320 319 320 319 318 318 318
318 319 319 318 318 319 319 317 316 317 319 320 321 321 320 320 321 320 319 319 318 317
313 314 315 316 316 316 316 317 318 320 320 320 320 321 321 321 321 319 319 319 317 317
307 308 310 311 312 314 318 319 319 320 320 321 321 321 320 320 320 320 319 318 318 317
296 296 296 296 297 299 300 301 303 306 311 312 314 315 317 319 319 319 319 319 317 317
295 296 296 296 296 296 297 298 301 302 303 303 304 305 305 306 309 313 316 314 312 311
294 295 295 294 294 296 299 298 298 298 298 299 299 299 298 298 300 303 305 305 304 303
293 292 292 291 291 295 294 295 295 293 294 292 293 295 295 295 296 297 296 297 297 296
290 289 289 289 288 288 289 290 289 289 290 289 291 294 295 293 292 292 293 291 291 291
288 288 288 288 288 290 288 288 287 287 286 286 287 292 293 292 290 290 289 289 289 289
288 285 287 289 289 290 286 286 287 286 285 285 286 290 292 291 288 287 287 287 286 288
285 287 287 288 288 286 286 286 285 285 285 285 286 289 292 289 286 285 285 285 285 286
283 286 287 286 285 285 285 285 285 283 284 285 285 286 292 290 285 285 283 283 284 285
Wind_Speed
15 10 10 10 8 8 9 8 7 9 10 11 11 10 10 8 10 10 11 15 13 11
11 11 11 10 7 8 7 6 6 8 9 11 11 12 11 10 12 12 12 13 14 14
10 10 9 7 9 9 7 6 7 8 10 10 11 11 12 11 12 13 11 11 15 13
6 6 6 6 6 6 6 6 7 9 10 11 11 12 12 14 13 14 14 14 14 16
5 5 5 4 3 2 4 4 5 6 8 9 10 10 11 12 11 13 13 12 14 15
6 5 5 5 4 3 3 3 3 4 4 5 5 5 5 7 9 10 11 12 9 12
6 5 4 3 3 3 3 2 1 1 2 2 3 5 4 5 7 8 9 5 4 5
5 5 5 4 4 4 1 1 2 1 1 2 3 2 4 4 5 6 6 5 5 4
7 6 6 5 6 5 5 4 3 2 2 2 3 5 5 5 5 6 5 5 6 5
6 6 6 5 5 5 4 3 2 1 0 2 3 4 6 5 3 4 4 5 4 5
5 5 5 5 4 2 0 0 1 2 3 3 3 6 6 6 3 1 2 3 3 1
6 5 6 5 5 4 3 3 2 1 1 1 2 5 5 2 2 2 2 2 3 1
6 6 5 5 4 3 2 2 2 2 1 1 3 5 3 5 2 2 0 1 1 1
6 5 3 4 2 3 3 3 3 3 1 1 3 4 3 4 2 1 1 1 2 1
Wind_Direction
215 212 218 223 219 216 221 224 219 209 217 223 226 229 227 227 231 230 227 231 228 234
214 213 217 219 211 224 219 227 208 205 211 219 219 224 222 227 233 230 230 235 235 236
203 206 213 207 216 219 222 208 206 211 216 222 224 224 223 231 234 233 231 230 235 236
193 193 196 208 213 211 218 209 216 224 226 227 227 227 228 234 237 235 236 235 233 239
174 183 204 225 232 243 245 229 228 229 233 234 232 233 238 241 246 252 253 249 246 244
184 189 209 219 227 244 279 305 349 355 342 350 342 334 307 287 257 251 255 257 251 253
181 187 187 174 148 129 119 130 186 257 294 326 333 318 335 326 318 305 286 277 283 298
173 160 151 153 137 120 171 66 71 57 359 352 325 326 331 307 294 292 293 295 297 300
158 160 168 156 144 166 178 182 163 199 216 299 306 286 312 325 306 302 318 306 303 300
160 163 165 156 152 159 171 178 201 240 281 254 277 309 306 299 279 309 314 316 322 331
156 154 146 137 125 108 100 99 51 26 4 345 335 336 319 321 330 3 18 6 343 291
160 147 144 157 165 165 154 129 108 175 47 3 302 330 332 75 53 359 4 326 299 303
137 145 155 156 160 127 97 121 133 132 167 311 306 325 10 125 148 151 197 279 353 352
109 119 146 124 89 131 116 124 94 85 12 343 331 328 97 106 106 146 180 251 263 255